Regional Weather Roundup
Issued by NWS

Home | Current Version | Previous Version | Text Only | Print | Product List | Glossary On
Versions: 1 2 3 4 5 6 7 8 9 10 11 12 13 14 15 16 17 18 19 20 21 22 23 24 25 26 27 28 29 30 31 32 33 34 35 36 37 38 39 40 41 42 43 44 45 46 47 48 49 50
678
ASHW40 PHFO 221930
RWRHI

WEATHER ROUNDUP FOR HAWAII
NATIONAL WEATHER SERVICE HONOLULU HI
900 AM HST FRI MAY 22 2015

THIS IS AN AUTOMATED REPORT THAT HAS NOT BEEN QUALITY CONTROLLED.

NOTE..."FAIR" INDICATES FEW OR NO CLOUDS BELOW 12,000 FEET WITH NO
SIGNIFICANT WEATHER AND/OR OBSTRUCTIONS TO VISIBILITY.

* - THESE SITES REPORT LIMITED FIELDS

HIZ001>004-222000-
KAUAI-NIIHAU-

CITY           SKY/WX    TMP DP  RH WIND       PRES   REMARKS
LIHUE APT      SUNNY     79  64  60 NE7       29.99R
PORT ALLEN*    NOT AVBL
POIPU*           N/A     79 N/A N/A S2          N/A
PRINCEVILLE*     N/A     75 N/A N/A MISG        N/A
KOKOLE POINT*  NOT AVBL
MOLOAA DAIRY*  NOT AVBL
WAIMEA HTS*    NOT AVBL
PUU OPAE*      NOT AVBL
PUU LUA*       NOT AVBL
MAKAHA RIDGE*    N/A     70  66  88 NE2         N/A
$$

HIZ005>011-222000-
OAHU-

CITY           SKY/WX    TMP DP  RH WIND       PRES   REMARKS
HONOLULU       CLOUDY    79  66  64 S6        29.97R
KALAELOA       MOSUNNY   79  65  62 W6        29.99R
KANEOHE MCB    MOSUNNY   79  66  64 VRB5      29.95S
WHEELER FIELD  FAIR      77  63  62 VRB5      29.97S
BELLOWS*         N/A    N/A N/A N/A NE5         N/A
KAHUKU*          N/A    N/A N/A N/A W3G10       N/A
WHEELER*       NOT AVBL
WAIANAE HARBOR NOT AVBL
DILLINGHAM*      N/A     66  52  59 MISG        N/A
KAHUKU TRN*      N/A     66  52  59 W3G10       N/A
KAWAILOA*        N/A     75  64  69 NW2G8       N/A
KII*             N/A     79  68  69 W8          N/A
MAKUA RANGE*     N/A     81  66  61 W3          N/A
OAHU FOREST NW NOT AVBL
SCHOFIELD BRK*   N/A     63  50  63 MISG        N/A
SCHOFIELD S*   NOT AVBL
WAIANAE VLY*   NOT AVBL
KUAOKALA*      NOT AVBL
HONOULIUULI*   NOT AVBL
MOKUOLOE IS*     N/A    N/A N/A N/A MISG        N/A
PALEHUA*       NOT AVBL
WAIAWA PHB*    NOT AVBL
$$

HIZ012>013-222000-
MOLOKAI-

CITY           SKY/WX    TMP DP  RH WIND       PRES   REMARKS
MOLOKAI AIRPT  MOSUNNY   79  65  62 VRB5      29.99S
KALAUPAPA      NOT AVBL
MAKAPULAPAI*   NOT AVBL
MOLOKAI 1*     NOT AVBL
PUU ALII*        N/A     64  55  71 W1          N/A
$$

HIZ016-222000-
KAHOOLAWE-

CITY           SKY/WX    TMP DP  RH WIND       PRES   REMARKS
KAHOOLAWE*     NOT AVBL
HAKIOAWA*        N/A     78  67  68 MISG      30.42R
HONOKANAIA*      N/A     81  68  63 SE6         N/A
KANELOA*         N/A     73  64  73 NE8       30.04R
KEALIALALO*      N/A     73  63  68 S6        29.99R
LUA MAKIKA*    NOT AVBL
$$

HIZ014>015-222000-
LANAI-

CITY           SKY/WX    TMP DP  RH WIND       PRES   REMARKS
LANAI CITY     FAIR      73  61  65 CALM      30.04R
LANAI 1*       NOT AVBL
$$

HIZ017>028-222000-
MAUI-

CITY           SKY/WX    TMP DP  RH WIND       PRES   REMARKS
KAHULUI        MOSUNNY   80  68  66 CALM      29.98S
KAPALUA-W MAUI MOSUNNY   77  66  69 VRB6      29.99R
HANA AIRPORT   SUNNY     77  66  69 NE6       30.01R
HANA*            N/A     77 N/A N/A NE6         N/A
HALEAKALA SUMM   N/A     46  30  53 W10         N/A
MAALAEA BAY*   NOT AVBL
HALEAKALA*     NOT AVBL
KAUPO GAP*     NOT AVBL
KULA 1*          N/A     56  47  72 NW5         N/A
$$

HIZ023>026-222000-
BIG ISLAND OF HAWAII COAST AND LOWER SLOPES-

CITY           SKY/WX    TMP DP  RH WIND       PRES   REMARKS
KAILUA KONA    CLOUDY    78  66  66 S12       29.97S
HILO           MOSUNNY   78  66  66 CALM      29.98F
HONOKAA*       NOT AVBL
KAWAIHAE MWT*    N/A     79 N/A N/A SW5         N/A
KAWAIHAE*        N/A     77 N/A N/A W6          N/A
SOUTH POINT*     N/A     73 N/A N/A W3          N/A
UPOLU AIRPORT*   N/A    N/A N/A N/A N5          N/A
KAMUELA*       NOT AVBL
HAKALAU*         N/A     58  51  77 E5          N/A
KALOKO-HONOKO*   N/A     79  64  61 S7        29.97S
PALI 2*          N/A     70  63  78 S3          N/A
KEALAKOMO*       N/A     88  72  58 S7          N/A  HX  94
KAUPULEHU*     NOT AVBL
KAPAPALA*        N/A     73  64  73 S3          N/A
LOWER KAHUKU*    N/A     64  61  88 SW2         N/A
PUHE CS*         N/A     79  59  50 SW2         N/A
PUHO CS*         N/A     79  65  61 S2          N/A
PTA KEAMUKU*     N/A     70  57  64 CALM        N/A
WAIKOLOA*      NOT AVBL
$$

HIZ027>028-222000-
BIG ISLAND OF HAWAII INTERIOR AND SUMMMITS-

CITY           SKY/WX    TMP DP  RH WIND       PRES   REMARKS
BRADSHAW FIELD SUNNY     62  47  58 W2G13     30.27S
MK VISITOR CEN NOT AVBL
MAUNA KEA*       N/A     39 -13  10 NW17        N/A
MAUNA LOA*       N/A     55 -33   2 MISG        N/A
MAUNA LOA 1*   NOT AVBL
PTA KIPUKA*      N/A     70  52  52 W5G10       N/A
PTA RANGE 17*    N/A     63  46  55 W5          N/A
PTA WEST*      NOT AVBL
NENE CABIN*      N/A     52  45  76 E2          N/A
AHUMOA*        NOT AVBL
PTA PORTABLE*  NOT AVBL
PUU MALI*        N/A     54  48  82 NW8G14      N/A
$$

HIC003-222000-
NORTHWEST ISLANDS-

CITY           SKY/WX    TMP DP  RH WIND       PRES   REMARKS
MIDWAY ISLAND  SUNNY    N/A N/A N/A E10       30.24R
MIDWAY NOS*    NOT AVBL
FRENCH FRIGATE NOT AVBL
$$

PHZ110>124-180-222000-
BUOY REPORTS

STATION/POSITION TIME  TEMP    WIND        PRES    WAVE   SWELL
                       AIR SEA DIR/SP/G            HT/PER HT/DIR
                 (UTC) (F)     (DEG/KT/KT) (MB)    (FT/S) (FT/D)
BUOY 51001       NOT AVBL
BUOY 51101       1900   73 76   40/ 17/ 21 1016.6R   8/ 8   5
BUOY 51100       NOT AVBL
BUOY 51002       1900   78 78  100/  2/  4 1015.4R   5/13   5/190
BUOY 51003       1900   78 79   50/  6/  8 1015.4R   4/12   5
BUOY 51004       1751   77 78   90/  2/  2 1015.3    5/ 8   5/100
BARBERS PT BUOY  NOT AVBL
WAIMEA BAY BUOY  1900      79                N/A     2/ 9   2/320
KAILUA BAY BUOY  1900      79                N/A     3/ 8   2/120
LANAI BUOY       NOT AVBL
BARBERS PT 2     1900      78                N/A     3/14   2/190
PAUWELA MAUI     1900      78                N/A     3/ 8
HILO             1900      77                N/A     4/ 8
KANEOHE BAY BUOY 1900      78                N/A     2/ 8
HANALEI KAUAI    1900      78                N/A     3/ 8   2/320
KAHULUI HARBOR   1900   76 77   20/  4/  5 1014.9R
HONOLULU HARBOR  1900   76 78  220/  6/  7 1015.1R
KILO NALU        NOT AVBL
HILO HARBOR      1900   75 76  350/  3/  3 1014.8F
MOKUOLOE         1900      78              1015.0R
NAWILIWILI       1900   77 80   90/  4/  5 1015.1R
WHOTS BUOY       NOT AVBL
BUOY 51028       NOT AVBL
$$

......................KEY........................................
  SKY/WX - SKY CONDITIONS/PRESENT WEATHER
  TMP    - TEMPERATURE IN FAHRENHEIT
  DWPT   - DEWPOINT IN FAHRENHEIT
  RH     - RELATIVE HUMIDITY IN PERCENT
  WIND   - DIRECTION AND SPEED /MPH FOR ISLANDS...KTS FOR BUOYS/
  PRES   - MEAN SEA LEVEL PRESSURE IN INCHES OF HG
  VSB    - VISIBILITY IN MILES
  HX     - HEAT INDEX
  WCI    - WIND CHILL INDEX
  VRB    - VARIABLE WIND DIRECTION
  N/A    - NOT AVAILABLE



USA.gov is the U.S. government's official web portal to all federal, state and local government web resources and services.